Regional Weather Roundup
Issued by NWS State College, PA

Home | Current Version | Previous Version | Graphics & Text | Print | Product List | Glossary Off
Versions: 1 2 3 4 5 6 7 8 9 10 11 12 13 14 15 16 17 18 19 20 21 22 23 24 25 26 27 28 29 30 31 32 33 34 35 36 37 38 39 40 41 42 43 44 45 46 47 48 49 50

000
ASUS41 KCTP 281910
RWRCTP

REGIONAL WEATHER ROUNDUP
NATIONAL WEATHER SERVICE STATE COLLEGE PA
300 PM EDT TUE MAR 28 2017

Note: "fair" indicates few or no clouds below 12,000 feet with no
significant weather and/or obstructions to visibility.

* = STATION THAT DOES NOT REPORT PRECIPITATION /E.G. RAIN...SNOW...ETC/
    THUNDER OR FOG.

PAZ002>004-007>009-013>016-020>023-029>032-282000-
WESTERN PENNSYLVANIA

CITY           SKY/WX    TMP DP  RH WIND       PRES   REMARKS
ERIE           CLOUDY    43  41  93 NE13      29.99S FOG
MEADVILLE      CLOUDY    50  45  83 N8        29.95R
FRANKLIN*      CLOUDY    54  48  82 N5        29.94R
NEW CASTLE     CLOUDY    54  50  86 N9        29.95R
BEAVER COUNTY  NOT AVBL
BUTLER*        CLOUDY    55  52  88 NW6       29.92S
PITTSBURGH INT CLOUDY    56  54  93 N17       29.91R
PITTSBURGH     CLOUDY    59  53  80 NW8       29.88S
INDIANA*       CLOUDY    57  57 100 W5        29.91R
LATROBE        CLOUDY    59  55  88 NW7       29.89R
WASHINGTON CO* CLOUDY    59  54  82 NW6       29.92S
$$

PAZ004>006-010>012-017>019-024>028-033>037-041-042-045-046-049>053-282000-
CENTRAL PENNSYLVANIA

CITY           SKY/WX    TMP DP  RH WIND       PRES   REMARKS
BRADFORD       CLOUDY    52  50  93 N7        29.90R
DUBOIS         CLOUDY    57  50  77 NW6       29.88R
CLEARFIELD       N/A    N/A N/A N/A MISG      29.87S
JOHNSTOWN      CLOUDY    55  54  96 W8        29.87S
ALTOONA        CLOUDY    62  55  77 W9        29.86F
STATE COLLEGE  CLOUDY    55  54  94 CALM      29.86F FOG
WILLIAMSPORT   LGT RAIN  55  53  93 W3        29.85F FOG
SELINSGROVE    LGT RAIN  56  54  93 N5        29.85S FOG
FT INDIANTOWN  LGT RAIN  52  52 100 SE3       29.85R
CAPITAL CITY   LGT RAIN  55  51  86 E5        29.85S FOG
HARRISBURG     DRIZZLE   53  52  96 SE5       29.84S
YORK           CLOUDY    56  55  97 CALM      29.84F
$$

PAZ038>040-043-044-047-048-054-055-060>062-067>071-282000-
EASTERN PENNSYLVANIA

CITY           SKY/WX    TMP DP  RH WIND       PRES   REMARKS
SCRANTON       LGT RAIN  52  51  97 NE13      29.83F
MOUNT POCONO   LGT RAIN  47  47 100 NE8       29.83F FOG
ALLENTOWN      LGT RAIN  51  47  86 NE7       29.85S
QUAKERTOWN*    CLOUDY    50  48  93 CALM      29.85R
READING        LGT RAIN  51  50  96 N5        29.85R FOG
LANCASTER      CLOUDY    55  53  93 CALM      29.85S
COATESVILLE    CLOUDY    52  52 100 CALM      29.85F FOG
POTTSTOWN      LGT RAIN  50  49  96 CALM      29.87R FOG
BLUE BELL      CLOUDY    48  48 100 CALM      29.85R
DOYLESTOWN     CLOUDY    48  47  96 VRB3      29.83F
WILLOW GROVE   NOT AVBL
NORTH PHILA    CLOUDY    53  50  89 E9        29.86F
PHILADELPHIA   CLOUDY    53  50  89 NE5       29.85R
$$




USA.gov is the U.S. government's official web portal to all federal, state and local government web resources and services.